| time (UTC) | temp F | wind direction | speed MPH | gust MPH | rain 1hr in | rain 24hr in | rain mn in | humidity % | barometer mb |
| 20260905220027 | 81 | 13 | 0.0 | 1.0 | 0.00 | 0.00 | 0.00 | 64 | 1010.6 |
| 20260905215043 | 81 | 13 | 0.0 | 0.0 | 0.00 | 0.00 | 0.00 | 67 | 1010.6 |
| 20260905214016 | 82 | 13 | 0.0 | 0.0 | 0.00 | 0.00 | 0.00 | 67 | 1010.5 |
| 20260905213031 | 82 | 13 | 0.0 | 0.0 | 0.00 | 0.00 | 0.00 | 67 | 1010.4 |
| 20260905212017 | 82 | 13 | 0.0 | 0.0 | 0.00 | 0.00 | 0.00 | 67 | 1010.3 |
| 20260905211038 | 82 | 13 | 0.0 | 0.0 | 0.00 | 0.00 | 0.00 | 68 | 1010.2 |
| 20260905210016 | 82 | 13 | 0.0 | 0.0 | 0.00 | 0.00 | 0.00 | 66 | 1010.2 |
| 20260905205040 | 82 | 13 | 0.0 | 0.0 | 0.00 | 0.00 | 0.00 | 64 | 1010.3 |
| 20260905204025 | 83 | 13 | 0.0 | 0.0 | 0.00 | 0.00 | 0.00 | 64 | 1010.4 |
| 20260905203018 | 83 | 13 | 0.0 | 0.0 | 0.00 | 0.00 | 0.00 | 64 | 1010.5 |
| 20260905202012 | 83 | 13 | 0.0 | 0.0 | 0.00 | 0.00 | 0.00 | 65 | 1010.4 |
| 20260905201027 | 82 | 13 | 0.0 | 0.0 | 0.00 | 0.00 | 0.00 | 66 | 1010.4 |
| 20260905200014 | 82 | 13 | 0.0 | 0.0 | 0.00 | 0.00 | 0.00 | 66 | 1010.6 |
| 20260905195027 | 82 | 13 | 0.0 | 0.0 | 0.00 | 0.00 | 0.00 | 65 | 1010.5 |
| 20260905194020 | 83 | 13 | 0.0 | 0.0 | 0.00 | 0.00 | 0.00 | 66 | 1010.6 |
| 20260905193034 | 83 | 13 | 0.0 | 0.0 | 0.00 | 0.00 | 0.00 | 64 | 1010.8 |
| 20260905192023 | 83 | 13 | 0.0 | 1.0 | 0.00 | 0.00 | 0.00 | 64 | 1010.9 |
| 20260905191038 | 83 | 13 | 0.0 | 2.0 | 0.00 | 0.00 | 0.00 | 64 | 1010.9 |
| 20260905190045 | 83 | 12 | 0.0 | 0.0 | 0.00 | 0.00 | 0.00 | 64 | 1010.9 |
| 20260905185019 | 82 | 12 | 0.0 | 0.0 | 0.00 | 0.00 | 0.00 | 65 | 1011.1 |
| 20260905184013 | 82 | 13 | 0.0 | 1.0 | 0.00 | 0.00 | 0.00 | 65 | 1011.5 |
| 20260905183029 | 81 | 11 | 0.0 | 0.0 | 0.00 | 0.00 | 0.00 | 64 | 1011.4 |
| 20260905182015 | 81 | 11 | 0.0 | 1.0 | 0.00 | 0.00 | 0.00 | 64 | 1011.7 |
| 20260905181039 | 81 | 355 | 0.0 | 0.0 | 0.00 | 0.00 | 0.00 | 66 | 1011.7 |
| 20260905180026 | 81 | 355 | 0.0 | 0.0 | 0.00 | 0.00 | 0.00 | 64 | 1011.7 |
| 20260905175021 | 81 | 355 | 0.0 | 0.0 | 0.00 | 0.00 | 0.00 | 66 | 1011.8 |
| 20260905174035 | 81 | 355 | 0.0 | 0.0 | 0.00 | 0.00 | 0.00 | 67 | 1011.8 |
| 20260905173021 | 80 | 355 | 0.0 | 0.0 | 0.00 | 0.00 | 0.00 | 65 | 1011.8 |
| 20260905172016 | 81 | 355 | 0.0 | 0.0 | 0.00 | 0.00 | 0.00 | 66 | 1011.9 |
| 20260905171030 | 81 | 355 | 0.0 | 2.0 | 0.00 | 0.00 | 0.00 | 66 | 1012.1 |
| 20260905170016 | 80 | 5 | 0.0 | 0.0 | 0.00 | 0.00 | 0.00 | 65 | 1012.0 |
| 20260905165029 | 80 | 5 | 0.0 | 3.0 | 0.00 | 0.00 | 0.00 | 68 | 1011.8 |
| 20260905164024 | 80 | 328 | 0.0 | 0.0 | 0.00 | 0.00 | 0.00 | 69 | 1012.0 |
| 20260905163039 | 80 | 328 | 0.0 | 1.0 | 0.00 | 0.00 | 0.00 | 70 | 1012.2 |
| 20260905162032 | 80 | 328 | 0.0 | 0.0 | 0.00 | 0.00 | 0.00 | 70 | 1012.2 |
| 20260905161028 | 80 | 328 | 0.0 | 0.0 | 0.00 | 0.00 | 0.00 | 70 | 1012.4 |
| 20260905160014 | 80 | 328 | 0.0 | 3.0 | 0.00 | 0.00 | 0.00 | 70 | 1012.5 |
| 20260905155028 | 81 | 332 | 0.0 | 2.0 | 0.00 | 0.00 | 0.00 | 68 | 1012.6 |
| 20260905154022 | 81 | 332 | 0.0 | 0.0 | 0.00 | 0.00 | 0.00 | 70 | 1012.6 |
| 20260905153036 | 81 | 332 | 0.0 | 0.0 | 0.00 | 0.00 | 0.00 | 69 | 1012.6 |
| 20260905152030 | 81 | 332 | 0.0 | 0.0 | 0.00 | 0.00 | 0.00 | 70 | 1012.6 |
| 20260905151015 | 81 | 325 | 0.0 | 4.0 | 0.00 | 0.00 | 0.00 | 71 | 1012.6 |
| 20260905150018 | 81 | 320 | 0.0 | 0.0 | 0.00 | 0.00 | 0.00 | 72 | 1012.6 |
| 20260905145014 | 80 | 320 | 0.0 | 0.0 | 0.00 | 0.00 | 0.00 | 73 | 1012.5 |
| 20260905144056 | 80 | 320 | 0.0 | 0.0 | 0.00 | 0.00 | 0.00 | 76 | 1012.4 |
| 20260905143049 | 79 | 320 | 0.0 | 0.0 | 0.00 | 0.00 | 0.00 | 76 | 1012.2 |
| 20260905142013 | 79 | 322 | 0.0 | 0.0 | 0.00 | 0.00 | 0.00 | 79 | 1012.2 |
| 20260905141037 | 78 | 322 | 0.0 | 0.0 | 0.00 | 0.00 | 0.00 | 79 | 1012.2 |
| 20260905140015 | 77 | 322 | 0.0 | 0.0 | 0.00 | 0.00 | 0.00 | 80 | 1012.2 |
| 20260905135039 | 77 | 322 | 0.0 | 0.0 | 0.00 | 0.00 | 0.00 | 80 | 1012.1 |
| 20260905134023 | 77 | 322 | 0.0 | 0.0 | 0.00 | 0.00 | 0.00 | 81 | 1012.1 |
| 20260905133017 | 76 | 322 | 0.0 | 0.0 | 0.00 | 0.00 | 0.00 | 82 | 1012.3 |
| 20260905132031 | 76 | 322 | 0.0 | 0.0 | 0.00 | 0.00 | 0.00 | 81 | 1012.1 |
| 20260905131026 | 76 | 322 | 0.0 | 0.0 | 0.00 | 0.00 | 0.00 | 82 | 1012.0 |
| 20260905130032 | 76 | 322 | 0.0 | 0.0 | 0.00 | 0.00 | 0.00 | 83 | 1012.0 |
| 20260905125045 | 76 | 322 | 0.0 | 0.0 | 0.00 | 0.00 | 0.00 | 84 | 1011.8 |
| 20260905124018 | 75 | 322 | 0.0 | 2.0 | 0.00 | 0.00 | 0.00 | 84 | 1011.9 |
| 20260905123014 | 75 | 321 | 0.0 | 3.0 | 0.00 | 0.00 | 0.00 | 85 | 1011.9 |
| 20260905122027 | 75 | 44 | 0.0 | 1.0 | 0.00 | 0.00 | 0.00 | 86 | 1011.9 |
| 20260905121023 | 75 | 71 | 0.0 | 5.0 | 0.00 | 0.00 | 0.00 | 88 | 1011.9 |
| 20260905120031 | 75 | 325 | 0.0 | 1.0 | 0.00 | 0.00 | 0.00 | 89 | 1011.5 |
| 20260905115025 | 75 | 331 | 0.0 | 5.0 | 0.00 | 0.00 | 0.00 | 89 | 1011.6 |
| 20260905114040 | 75 | 338 | 0.0 | 0.0 | 0.00 | 0.00 | 0.00 | 89 | 1011.6 |
| 20260905113024 | 75 | 338 | 0.0 | 3.0 | 0.00 | 0.00 | 0.00 | 89 | 1011.4 |
| 20260905112017 | 75 | 341 | 0.0 | 2.0 | 0.00 | 0.00 | 0.00 | 90 | 1011.6 |
| 20260905111031 | 75 | 321 | 0.0 | 1.0 | 0.00 | 0.00 | 0.00 | 90 | 1011.2 |
| 20260905110019 | 75 | 320 | 0.0 | 3.0 | 0.00 | 0.00 | 0.00 | 90 | 1011.3 |
| 20260905105014 | 75 | 320 | 0.0 | 0.0 | 0.00 | 0.01 | 0.00 | 90 | 1011.3 |
| 20260905104025 | 75 | 320 | 0.0 | 1.0 | 0.00 | 0.01 | 0.00 | 90 | 1010.9 |
| 20260905103039 | 75 | 320 | 0.0 | 6.0 | 0.00 | 0.01 | 0.00 | 90 | 1010.9 |
| 20260905102031 | 75 | 306 | 0.0 | 3.0 | 0.00 | 0.01 | 0.00 | 90 | 1010.9 |
| 20260905101025 | 75 | 280 | 0.0 | 2.0 | 0.00 | 0.01 | 0.00 | 90 | 1010.8 |
| 20260905100014 | 75 | 279 | 0.0 | 1.0 | 0.00 | 0.01 | 0.00 | 90 | 1010.6 |
| 20260905095026 | 75 | 279 | 0.0 | 0.0 | 0.00 | 0.01 | 0.00 | 89 | 1010.7 |
| 20260905094021 | 75 | 279 | 0.0 | 0.0 | 0.00 | 0.01 | 0.00 | 89 | 1010.6 |
| 20260905093035 | 75 | 279 | 0.0 | 0.0 | 0.00 | 0.01 | 0.00 | 89 | 1010.4 |
| 20260905092020 | 75 | 279 | 0.0 | 0.0 | 0.00 | 0.01 | 0.00 | 89 | 1010.6 |
| 20260905091013 | 75 | 279 | 0.0 | 0.0 | 0.00 | 0.01 | 0.00 | 88 | 1010.4 |
| 20260905090049 | 75 | 279 | 0.0 | 0.0 | 0.00 | 0.01 | 0.00 | 88 | 1010.5 |
| 20260905085022 | 75 | 279 | 0.0 | 0.0 | 0.00 | 0.01 | 0.00 | 88 | 1010.6 |
| 20260905084035 | 75 | 279 | 0.0 | 3.0 | 0.00 | 0.01 | 0.00 | 88 | 1010.5 |
| 20260905083020 | 76 | 280 | 0.0 | 2.0 | 0.00 | 0.01 | 0.00 | 88 | 1010.5 |
| 20260905082014 | 76 | 280 | 0.0 | 0.0 | 0.00 | 0.01 | 0.00 | 88 | 1010.6 |
| 20260905081029 | 76 | 280 | 0.0 | 0.0 | 0.00 | 0.01 | 0.00 | 87 | 1010.7 |
| 20260905080035 | 76 | 280 | 0.0 | 0.0 | 0.00 | 0.01 | 0.00 | 87 | 1010.7 |
| 20260905075037 | 76 | 280 | 0.0 | 4.0 | 0.00 | 0.01 | 0.00 | 87 | 1010.7 |
| 20260905074023 | 76 | 288 | 0.0 | 4.0 | 0.00 | 0.01 | 0.00 | 87 | 1010.7 |
| 20260905073017 | 76 | 278 | 0.0 | 4.0 | 0.00 | 0.01 | 0.00 | 87 | 1010.7 |
| 20260905072102 | 76 | 271 | 1.0 | 7.0 | 0.00 | 0.01 | 0.00 | 88 | 1010.8 |
| 20260905071023 | 76 | 262 | 1.0 | 8.0 | 0.00 | 0.01 | 0.00 | 88 | 1010.9 |
| 20260905070027 | 76 | 267 | 1.0 | 6.0 | 0.00 | 0.01 | 0.00 | 88 | 1010.9 |
| 20260905065021 | 76 | 229 | 2.0 | 7.0 | 0.00 | 0.01 | 0.00 | 88 | 1011.1 |
| 20260905064016 | 76 | 274 | 1.0 | 4.0 | 0.00 | 0.01 | 0.00 | 88 | 1011.1 |
| 20260905063029 | 76 | 259 | 1.0 | 7.0 | 0.00 | 0.01 | 0.00 | 88 | 1011.1 |
| 20260905062024 | 76 | 244 | 1.0 | 5.0 | 0.00 | 0.01 | 0.00 | 89 | 1011.3 |
| 20260905061036 | 76 | 248 | 1.0 | 7.0 | 0.00 | 0.01 | 0.00 | 89 | 1011.2 |
| 20260905060042 | 76 | 248 | 1.0 | 7.0 | 0.00 | 0.01 | 0.00 | 89 | 1011.3 |
| 20260905055014 | 76 | 248 | 0.0 | 5.0 | 0.00 | 0.01 | 0.00 | 89 | 1011.2 |
| 20260905054027 | 77 | 245 | 1.0 | 7.0 | 0.00 | 0.01 | 0.00 | 89 | 1011.3 |
| 20260905053022 | 77 | 248 | 1.0 | 4.0 | 0.00 | 0.01 | 0.00 | 89 | 1011.5 |
| 20260905052037 | 77 | 269 | 0.0 | 3.0 | 0.00 | 0.01 | 0.00 | 89 | 1011.5 |
| 20260905051053 | 77 | 277 | 0.0 | 4.0 | 0.00 | 0.01 | 0.00 | 89 | 1011.7 |
| 20260905050019 | 77 | 250 | 0.0 | 5.0 | 0.00 | 0.01 | 0.00 | 89 | 1011.9 |
| 20260905045013 | 77 | 251 | 1.0 | 6.0 | 0.00 | 0.06 | 0.00 | 89 | 1011.9 |
| 20260905044027 | 77 | 250 | 0.0 | 3.0 | 0.00 | 0.06 | 0.00 | 89 | 1011.9 |
| 20260905043040 | 78 | 250 | 0.0 | 3.0 | 0.00 | 0.06 | 0.00 | 88 | 1011.9 |
| 20260905042027 | 78 | 250 | 0.0 | 2.0 | 0.00 | 0.06 | 0.00 | 88 | 1011.8 |
| 20260905041021 | 78 | 250 | 0.0 | 0.0 | 0.00 | 0.06 | 0.00 | 88 | 1011.8 |
| 20260905040029 | 78 | 250 | 0.0 | 3.0 | 0.00 | 0.06 | 0.00 | 88 | 1012.0 |
| 20260905035023 | 78 | 250 | 0.0 | 3.0 | 0.00 | 0.06 | 0.06 | 88 | 1012.0 |
| 20260905034016 | 78 | 250 | 1.0 | 3.0 | 0.00 | 0.06 | 0.06 | 88 | 1012.2 |
| 20260905033029 | 78 | 250 | 0.0 | 3.0 | 0.00 | 0.06 | 0.06 | 88 | 1012.1 |
| 20260905032025 | 78 | 250 | 0.0 | 2.0 | 0.00 | 0.06 | 0.06 | 88 | 1012.1 |
| 20260905031040 | 79 | 250 | 0.0 | 1.0 | 0.00 | 0.06 | 0.06 | 87 | 1012.1 |
| 20260905030027 | 79 | 250 | 0.0 | 0.0 | 0.00 | 0.06 | 0.06 | 87 | 1012.2 |
| 20260905025024 | 79 | 250 | 0.0 | 3.0 | 0.00 | 0.06 | 0.06 | 87 | 1012.1 |
| 20260905024041 | 79 | 250 | 0.0 | 2.0 | 0.00 | 0.06 | 0.06 | 87 | 1012.2 |
| 20260905023026 | 79 | 250 | 0.0 | 0.0 | 0.00 | 0.06 | 0.06 | 86 | 1012.1 |
| 20260905022036 | 79 | 250 | 0.0 | 0.0 | 0.00 | 0.06 | 0.06 | 86 | 1011.9 |
| 20260905021039 | 79 | 250 | 0.0 | 0.0 | 0.00 | 0.06 | 0.06 | 85 | 1012.0 |
| 20260905020016 | 79 | 250 | 0.0 | 1.0 | 0.00 | 0.06 | 0.06 | 84 | 1012.0 |
| 20260905015041 | 79 | 250 | 0.0 | 1.0 | 0.00 | 0.06 | 0.06 | 84 | 1012.0 |
| 20260905014054 | 79 | 250 | 0.0 | 0.0 | 0.00 | 0.06 | 0.06 | 83 | 1011.9 |
| 20260905013018 | 79 | 250 | 0.0 | 0.0 | 0.00 | 0.06 | 0.06 | 83 | 1011.8 |
| 20260905012033 | 80 | 250 | 0.0 | 0.0 | 0.00 | 0.06 | 0.06 | 83 | 1011.7 |
| 20260905011029 | 80 | 250 | 0.0 | 0.0 | 0.00 | 0.06 | 0.06 | 83 | 1011.5 |
| 20260905010106 | 80 | 250 | 0.0 | 0.0 | 0.00 | 0.06 | 0.06 | 83 | 1011.5 |
| 20260905005037 | 80 | 250 | 0.0 | 0.0 | 0.00 | 0.06 | 0.06 | 82 | 1011.4 |
| 20260905004053 | 81 | 250 | 0.0 | 0.0 | 0.00 | 0.06 | 0.06 | 82 | 1011.4 |
| 20260905003047 | 81 | 250 | 0.0 | 0.0 | 0.00 | 0.06 | 0.06 | 81 | 1011.5 |
| 20260905002022 | 81 | 250 | 0.0 | 0.0 | 0.00 | 0.06 | 0.06 | 80 | 1011.6 |
| 20260905001035 | 82 | 250 | 0.0 | 0.0 | 0.00 | 0.06 | 0.06 | 79 | 1011.3 |
| 20260905000022 | 82 | 250 | 0.0 | 0.0 | 0.00 | 0.06 | 0.06 | 79 | 1011.3 |
| 20260904235036 | 82 | 250 | 0.0 | 0.0 | 0.00 | 0.06 | 0.06 | 78 | 1011.3 |
| 20260904234021 | 83 | 250 | 0.0 | 0.0 | 0.00 | 0.06 | 0.06 | 77 | 1011.3 |
| 20260904233015 | 83 | 250 | 0.0 | 0.0 | 0.00 | 0.06 | 0.06 | 76 | 1011.4 |
| 20260904232029 | 84 | 250 | 0.0 | 0.0 | 0.00 | 0.06 | 0.06 | 75 | 1011.5 |
| 20260904231024 | 84 | 250 | 0.0 | 0.0 | 0.00 | 0.06 | 0.06 | 75 | 1011.6 |
| 20260904230032 | 84 | 250 | 0.0 | 0.0 | 0.00 | 0.06 | 0.06 | 74 | 1011.5 |
| 20260904225043 | 85 | 250 | 0.0 | 0.0 | 0.00 | 0.06 | 0.06 | 73 | 1011.4 |
| 20260904224017 | 85 | 250 | 0.0 | 0.0 | 0.00 | 0.06 | 0.06 | 73 | 1011.3 |
| 20260904223032 | 85 | 250 | 0.0 | 0.0 | 0.00 | 0.06 | 0.06 | 72 | 1011.4 |
| 20260904222028 | 85 | 250 | 0.0 | 0.0 | 0.00 | 0.06 | 0.06 | 69 | 1011.6 |
| 20260904221023 | 86 | 250 | 0.0 | 1.0 | 0.00 | 0.06 | 0.06 | 68 | 1011.8 |